EXS62JN EGCC-LTBS

Flight info

Callsign EXS62JN
Flight time 3h 49m
Altitude 37000
Route LISTO L612 HON L15 FINMA DCT CHT DCT ITVIP DCT KONAN DCT KOK UL607 FERDI DCT REMBA DCT RITAX DCT PITES DCT KRH DCT KUNOD DCT GEDSO DCT BERTA DCT PODET DCT ZINPE DCT NASSY DCT ETIDA DCT ADVER DCT LETVA DCT OMAMI DCT ADORU UN739 EKI UL854 ESKIN UW81 DEN UW87 ATSAL
Aircraft B738/M-SDE2E3FGHIRWXY/LB1

Departure

Time 2026-04-22 08:20
Airport Manchester Airport (EGCC)

Arrival

Time 2026-04-22 12:10
Airport Dalaman International Airport (LTBS)
Time Latitude Longitude Altitude Speed Heading
2026-04-22 07:55 53.36441 -2.27735 254 ft 0 kts 45°
2026-04-22 08:09 53.36440 -2.27737 254 ft 1 kts 45°
2026-04-22 08:10 53.36428 -2.27756 254 ft 3 kts 45°
2026-04-22 08:10 53.36414 -2.27780 254 ft 3 kts 45°
2026-04-22 08:10 53.36400 -2.27803 254 ft 3 kts 40°
2026-04-22 08:10 53.36384 -2.27821 254 ft 3 kts 11°
2026-04-22 08:11 53.36367 -2.27820 254 ft 3 kts 326°
2026-04-22 08:11 53.36358 -2.27809 254 ft 2 kts 315°
2026-04-22 08:11 53.36347 -2.27786 254 ft 3 kts 288°
2026-04-22 08:11 53.36342 -2.27754 254 ft 3 kts 284°
2026-04-22 08:12 53.36340 -2.27742 254 ft 0 kts 284°
2026-04-22 08:14 53.36343 -2.27761 254 ft 6 kts 286°
2026-04-22 08:14 53.36382 -2.27850 254 ft 12 kts 310°
2026-04-22 08:14 53.36370 -2.27970 254 ft 11 kts 225°
2026-04-22 08:14 53.36309 -2.28051 254 ft 11 kts 204°
2026-04-22 08:15 53.36240 -2.28102 254 ft 11 kts 213°
2026-04-22 08:15 53.36168 -2.28149 254 ft 13 kts 169°
2026-04-22 08:15 53.36093 -2.28049 254 ft 15 kts 138°
2026-04-22 08:15 53.36010 -2.27928 254 ft 16 kts 139°
2026-04-22 08:16 53.35916 -2.27849 254 ft 15 kts 180°
2026-04-22 08:16 53.35807 -2.27864 249 ft 17 kts 186°
2026-04-22 08:16 53.35685 -2.27884 243 ft 19 kts 185°
2026-04-22 08:16 53.35606 -2.27940 238 ft 12 kts 230°
2026-04-22 08:17 53.35545 -2.28062 234 ft 16 kts 229°
2026-04-22 08:17 53.35442 -2.28151 234 ft 17 kts 193°
2026-04-22 08:17 53.35322 -2.28196 232 ft 19 kts 201°
2026-04-22 08:17 53.35210 -2.28345 231 ft 22 kts 229°
2026-04-22 08:18 53.35105 -2.28563 227 ft 25 kts 231°
2026-04-22 08:18 53.34992 -2.28778 226 ft 26 kts 226°
2026-04-22 08:18 53.34870 -2.28995 219 ft 26 kts 227°
2026-04-22 08:18 53.34761 -2.29205 213 ft 21 kts 230°
2026-04-22 08:19 53.34647 -2.29341 216 ft 20 kts 189°
2026-04-22 08:19 53.34546 -2.29272 212 ft 10 kts 116°
2026-04-22 08:19 53.34566 -2.29168 216 ft 10 kts 51°
2026-04-22 08:19 53.34650 -2.28995 216 ft 42 kts 51°
2026-04-22 08:20 53.34961 -2.28352 232 ft 100 kts 51°
2026-04-22 08:20 53.35508 -2.27216 250 ft 148 kts 53°
2026-04-22 08:20 53.36179 -2.25800 713 ft 156 kts 53°
2026-04-22 08:20 53.36875 -2.24398 1442 ft 156 kts 53°
2026-04-22 08:21 53.37466 -2.22939 2166 ft 153 kts 74°
2026-04-22 08:21 53.37518 -2.21090 2532 ft 171 kts 102°
2026-04-22 08:21 53.36917 -2.19252 2799 ft 194 kts 131°
2026-04-22 08:21 53.35779 -2.17858 3187 ft 206 kts 142°
2026-04-22 08:22 53.34364 -2.16961 3450 ft 236 kts 164°
2026-04-22 08:22 53.32663 -2.16878 3956 ft 252 kts 179°
2026-04-22 08:22 53.30898 -2.17175 4640 ft 256 kts 180°
2026-04-22 08:22 53.29122 -2.17491 5366 ft 258 kts 180°
2026-04-22 08:23 53.27337 -2.17811 6084 ft 259 kts 181°
2026-04-22 08:23 53.25535 -2.18120 6786 ft 262 kts 181°
2026-04-22 08:23 53.23718 -2.18417 7454 ft 263 kts 181°
2026-04-22 08:23 53.21884 -2.18710 8114 ft 266 kts 181°
2026-04-22 08:24 53.20049 -2.18999 8705 ft 271 kts 181°
2026-04-22 08:24 53.18163 -2.19295 9349 ft 274 kts 181°
2026-04-22 08:24 53.16261 -2.19592 10014 ft 276 kts 181°
2026-04-22 08:24 53.14336 -2.19725 10586 ft 277 kts 168°
2026-04-22 08:25 53.12469 -2.18757 10791 ft 290 kts 155°
2026-04-22 08:25 53.10545 -2.17418 10946 ft 310 kts 154°
2026-04-22 08:25 53.08513 -2.15979 11248 ft 322 kts 154°
2026-04-22 08:25 53.06434 -2.14511 11799 ft 327 kts 155°
2026-04-22 08:26 53.04329 -2.13035 12400 ft 330 kts 155°
2026-04-22 08:26 53.02203 -2.11554 13040 ft 333 kts 155°
2026-04-22 08:26 53.00056 -2.10065 13651 ft 336 kts 155°
2026-04-22 08:26 52.97886 -2.08565 14315 ft 339 kts 155°
2026-04-22 08:27 52.95696 -2.07055 14868 ft 343 kts 155°
2026-04-22 08:27 52.93481 -2.05531 15441 ft 348 kts 156°
2026-04-22 08:27 52.91224 -2.03980 15926 ft 354 kts 156°
2026-04-22 08:27 52.88942 -2.02415 16544 ft 356 kts 156°
2026-04-22 08:28 52.86643 -2.00841 17155 ft 359 kts 156°
2026-04-22 08:28 52.84328 -1.99258 17779 ft 362 kts 156°
2026-04-22 08:28 52.81994 -1.97663 18442 ft 362 kts 156°
2026-04-22 08:28 52.79657 -1.96068 18966 ft 367 kts 157°
2026-04-22 08:29 52.77259 -1.94433 19231 ft 377 kts 157°
2026-04-22 08:29 52.74819 -1.92772 19672 ft 381 kts 157°
2026-04-22 08:29 52.72339 -1.91085 19932 ft 392 kts 157°
2026-04-22 08:29 52.69795 -1.89357 20292 ft 398 kts 158°
2026-04-22 08:30 52.67221 -1.87611 20722 ft 403 kts 158°
2026-04-22 08:30 52.64620 -1.85849 21195 ft 405 kts 158°
2026-04-22 08:30 52.62001 -1.84077 21627 ft 410 kts 158°
2026-04-22 08:30 52.59340 -1.82279 21996 ft 415 kts 158°
2026-04-22 08:31 52.56666 -1.80474 22584 ft 416 kts 159°
2026-04-22 08:31 52.53978 -1.78662 22977 ft 421 kts 159°
2026-04-22 08:31 52.48495 -1.74973 23711 ft 430 kts 159°
2026-04-22 08:32 52.45709 -1.73102 24101 ft 434 kts 159°
2026-04-22 08:32 52.42908 -1.71223 24463 ft 437 kts 159°
2026-04-22 08:32 52.40091 -1.69337 24837 ft 439 kts 159°
2026-04-22 08:32 52.37298 -1.67277 25195 ft 443 kts 152°
2026-04-22 08:33 52.34710 -1.64509 25533 ft 446 kts 143°
2026-04-22 08:33 52.32410 -1.61085 25872 ft 450 kts 134°
2026-04-22 08:33 52.30252 -1.57361 26216 ft 452 kts 133°
2026-04-22 08:33 52.28101 -1.53592 26540 ft 455 kts 133°
2026-04-22 08:34 52.25934 -1.49807 26845 ft 458 kts 134°
2026-04-22 08:34 52.23744 -1.46018 27172 ft 461 kts 133°
2026-04-22 08:34 52.21526 -1.42219 27453 ft 464 kts 134°
2026-04-22 08:34 52.19287 -1.38407 27756 ft 467 kts 134°
2026-04-22 08:35 52.17033 -1.34587 28076 ft 469 kts 134°
2026-04-22 08:35 52.14765 -1.30752 28385 ft 471 kts 134°
2026-04-22 08:35 52.12514 -1.26950 28676 ft 473 kts 134°
2026-04-22 08:35 52.10192 -1.23034 28963 ft 476 kts 134°
2026-04-22 08:36 52.07890 -1.19156 29244 ft 478 kts 134°
2026-04-22 08:36 52.05571 -1.15252 29508 ft 481 kts 134°
2026-04-22 08:36 52.03243 -1.11342 29765 ft 483 kts 134°
2026-04-22 08:36 52.00885 -1.07444 29987 ft 485 kts 135°
2026-04-22 08:37 51.98465 -1.03603 30229 ft 487 kts 137°
2026-04-22 08:37 51.95955 -0.99895 30477 ft 489 kts 139°
2026-04-22 08:37 51.93398 -0.96247 30722 ft 491 kts 139°
2026-04-22 08:37 51.90821 -0.92605 30976 ft 491 kts 139°
2026-04-22 08:38 51.88289 -0.89017 31321 ft 490 kts 139°
2026-04-22 08:38 51.85738 -0.85382 31705 ft 487 kts 139°
2026-04-22 08:38 51.83210 -0.81761 32076 ft 485 kts 139°
2026-04-22 08:38 51.80691 -0.78145 32389 ft 484 kts 139°
2026-04-22 08:39 51.78172 -0.74531 32624 ft 485 kts 139°
2026-04-22 08:39 51.75646 -0.70913 32850 ft 486 kts 139°
2026-04-22 08:39 51.73126 -0.67308 33152 ft 484 kts 139°
2026-04-22 08:39 51.70603 -0.63707 33487 ft 483 kts 139°
2026-04-22 08:40 51.68093 -0.60130 33787 ft 482 kts 139°
2026-04-22 08:40 51.65598 -0.56521 34034 ft 482 kts 135°
2026-04-22 08:40 51.63412 -0.52447 34249 ft 482 kts 124°
2026-04-22 08:40 51.61642 -0.47880 34501 ft 480 kts 116°
2026-04-22 08:41 51.60310 -0.42995 34754 ft 476 kts 107°
2026-04-22 08:41 51.59276 -0.37955 35021 ft 474 kts 106°
2026-04-22 08:41 51.58269 -0.32909 35224 ft 474 kts 106°
2026-04-22 08:41 51.57262 -0.27861 35338 ft 475 kts 106°
2026-04-22 08:42 51.56239 -0.22799 35332 ft 478 kts 106°
2026-04-22 08:42 51.54151 -0.12680 35336 ft 475 kts 107°
2026-04-22 08:43 51.52047 -0.02665 35380 ft 472 kts 107°
2026-04-22 08:43 51.49944 0.07280 35352 ft 469 kts 107°
2026-04-22 08:44 51.47842 0.17183 35347 ft 468 kts 107°
2026-04-22 08:44 51.45738 0.27053 35347 ft 467 kts 107°
2026-04-22 08:45 51.43626 0.36915 35350 ft 468 kts 107°
2026-04-22 08:45 51.41499 0.46801 35350 ft 470 kts 107°
2026-04-22 08:46 51.39355 0.56715 35344 ft 472 kts 107°
2026-04-22 08:46 51.37193 0.66664 35340 ft 474 kts 107°
2026-04-22 08:47 51.35014 0.76641 35347 ft 475 kts 107°
2026-04-22 08:47 51.32829 0.86600 35331 ft 475 kts 107°
2026-04-22 08:48 51.30632 0.96573 35363 ft 476 kts 107°
2026-04-22 08:48 51.28443 1.06561 35333 ft 476 kts 105°
2026-04-22 08:49 51.26709 1.16728 35340 ft 474 kts 101°
2026-04-22 08:49 51.25165 1.26872 35337 ft 473 kts 101°
2026-04-22 08:50 51.23562 1.37045 35341 ft 473 kts 102°
2026-04-22 08:50 51.21908 1.47190 35353 ft 472 kts 102°
2026-04-22 08:51 51.20237 1.57315 35346 ft 472 kts 102°
2026-04-22 08:51 51.18560 1.67427 35342 ft 472 kts 102°
2026-04-22 08:52 51.16878 1.77521 35340 ft 471 kts 102°
2026-04-22 08:52 51.15189 1.87609 35348 ft 471 kts 102°
2026-04-22 08:53 51.13778 1.95994 35359 ft 472 kts 102°
2026-04-22 08:53 51.12616 2.06193 35356 ft 466 kts 91°
2026-04-22 08:54 51.12147 2.16479 35342 ft 466 kts 90°
2026-04-22 08:54 51.11658 2.26763 35344 ft 466 kts 91°
2026-04-22 08:55 51.11103 2.37041 35360 ft 466 kts 92°
2026-04-22 08:55 51.10524 2.47300 35351 ft 465 kts 92°
2026-04-22 08:56 51.09942 2.57538 35339 ft 464 kts 92°
2026-04-22 08:56 51.09168 2.67714 35331 ft 465 kts 101°
2026-04-22 08:57 51.07391 2.77598 35341 ft 465 kts 104°
2026-04-22 08:57 51.05512 2.87413 35372 ft 463 kts 104°
2026-04-22 08:58 51.03683 2.97217 35396 ft 463 kts 104°
2026-04-22 08:58 51.02778 3.02132 35569 ft 463 kts 104°
2026-04-22 08:58 51.01878 3.07036 35780 ft 462 kts 104°
2026-04-22 08:58 51.00979 3.11926 36029 ft 461 kts 104°
2026-04-22 08:59 51.00080 3.16801 36247 ft 460 kts 104°
2026-04-22 08:59 50.99178 3.21678 36386 ft 460 kts 104°
2026-04-22 08:59 50.98273 3.26555 36514 ft 462 kts 104°
2026-04-22 08:59 50.97363 3.31447 36654 ft 462 kts 104°
2026-04-22 09:00 50.96451 3.36328 36908 ft 460 kts 104°
2026-04-22 09:00 50.95543 3.41179 37108 ft 459 kts 104°
2026-04-22 09:00 50.94631 3.46039 37219 ft 459 kts 104°
2026-04-22 09:00 50.93719 3.50891 37331 ft 460 kts 104°
2026-04-22 09:01 50.92803 3.55755 37320 ft 461 kts 104°
2026-04-22 09:01 50.90966 3.65458 37319 ft 457 kts 104°
2026-04-22 09:02 50.89134 3.75045 37320 ft 453 kts 105°
2026-04-22 09:02 50.87298 3.84611 37350 ft 455 kts 105°
2026-04-22 09:03 50.85452 3.94196 37341 ft 456 kts 105°
2026-04-22 09:03 50.83592 4.03799 37337 ft 457 kts 105°
2026-04-22 09:04 50.81723 4.13405 37349 ft 457 kts 105°
2026-04-22 09:04 50.79845 4.23006 37335 ft 457 kts 105°
2026-04-22 09:05 50.77971 4.32541 37348 ft 457 kts 105°
2026-04-22 09:05 50.76077 4.42130 37350 ft 457 kts 105°
2026-04-22 09:06 50.74172 4.51728 37354 ft 460 kts 105°
2026-04-22 09:06 50.72239 4.61425 37354 ft 466 kts 105°
2026-04-22 09:07 50.70278 4.71206 37343 ft 470 kts 105°
2026-04-22 09:07 50.68299 4.81038 37336 ft 471 kts 105°
2026-04-22 09:08 50.65848 4.90556 37332 ft 467 kts 120°
2026-04-22 09:08 50.61807 4.98505 37341 ft 466 kts 134°
2026-04-22 09:09 50.57138 5.05603 37321 ft 466 kts 135°
2026-04-22 09:09 50.52474 5.12680 37334 ft 466 kts 134°
2026-04-22 09:10 50.47823 5.19813 37316 ft 467 kts 134°
2026-04-22 09:10 50.43175 5.26961 37312 ft 469 kts 134°
2026-04-22 09:11 50.38510 5.34119 37305 ft 470 kts 134°
2026-04-22 09:11 50.33824 5.41286 37295 ft 471 kts 134°
2026-04-22 09:12 50.29127 5.48445 37287 ft 472 kts 134°
2026-04-22 09:12 50.24413 5.55609 37312 ft 473 kts 134°
2026-04-22 09:13 50.19682 5.62779 37295 ft 474 kts 134°
2026-04-22 09:13 50.14942 5.69942 37292 ft 475 kts 135°
2026-04-22 09:14 50.10194 5.77099 37287 ft 475 kts 135°
2026-04-22 09:14 50.05717 5.84602 37289 ft 472 kts 126°
2026-04-22 09:15 50.01810 5.92788 37281 ft 471 kts 124°
2026-04-22 09:15 49.97922 6.00985 37280 ft 471 kts 125°
2026-04-22 09:16 49.94009 6.09064 37285 ft 471 kts 125°
2026-04-22 09:16 49.90044 6.17160 37283 ft 471 kts 126°
2026-04-22 09:17 49.86074 6.25236 37288 ft 471 kts 126°
2026-04-22 09:17 49.82104 6.33296 37286 ft 471 kts 126°
2026-04-22 09:18 49.78123 6.41358 37279 ft 471 kts 126°
2026-04-22 09:18 49.74137 6.49406 37278 ft 472 kts 126°
2026-04-22 09:19 49.70652 6.57929 37272 ft 468 kts 115°
2026-04-22 09:19 49.67655 6.66863 37259 ft 469 kts 115°
2026-04-22 09:20 49.64649 6.75801 37259 ft 470 kts 115°
2026-04-22 09:20 49.61591 6.84716 37268 ft 471 kts 116°
2026-04-22 09:21 49.58502 6.93611 37259 ft 471 kts 116°
2026-04-22 09:21 49.55402 7.02495 37269 ft 470 kts 116°
2026-04-22 09:22 49.52319 7.11307 37262 ft 470 kts 116°
2026-04-22 09:22 49.49210 7.20163 37302 ft 471 kts 116°
2026-04-22 09:23 49.46090 7.29026 37273 ft 472 kts 116°
2026-04-22 09:23 49.42960 7.37884 37279 ft 472 kts 116°
2026-04-22 09:24 49.39818 7.46744 37282 ft 472 kts 116°
2026-04-22 09:24 49.36669 7.55595 37287 ft 473 kts 116°
2026-04-22 09:25 49.33510 7.64443 37292 ft 473 kts 116°
2026-04-22 09:25 49.30343 7.73283 37285 ft 473 kts 116°
2026-04-22 09:26 49.27174 7.82099 37282 ft 472 kts 116°
2026-04-22 09:26 49.24002 7.90894 37263 ft 471 kts 116°
2026-04-22 09:27 49.20833 7.99651 37298 ft 471 kts 117°
2026-04-22 09:27 49.17652 8.08413 37274 ft 471 kts 117°
2026-04-22 09:28 49.14463 8.17165 37254 ft 471 kts 117°
2026-04-22 09:28 49.11267 8.25908 37263 ft 472 kts 117°
2026-04-22 09:29 49.08063 8.34645 37266 ft 472 kts 117°
2026-04-22 09:29 49.04853 8.43372 37266 ft 472 kts 117°
2026-04-22 09:30 49.01656 8.52035 37265 ft 472 kts 117°
2026-04-22 09:30 48.98143 8.60499 37240 ft 475 kts 130°
2026-04-22 09:31 48.93603 8.67831 37257 ft 477 kts 133°
2026-04-22 09:31 48.88983 8.75065 37252 ft 478 kts 133°
2026-04-22 09:32 48.84378 8.82361 37248 ft 480 kts 132°
2026-04-22 09:32 48.79775 8.89706 37265 ft 480 kts 132°
2026-04-22 09:33 48.75168 8.97054 37256 ft 481 kts 132°
2026-04-22 09:33 48.70535 9.04419 37253 ft 485 kts 132°
2026-04-22 09:34 48.65860 9.11827 37275 ft 489 kts 132°
2026-04-22 09:34 48.61142 9.19278 37277 ft 492 kts 133°
2026-04-22 09:35 48.54098 9.30361 37244 ft 483 kts 133°
2026-04-22 09:35 48.49461 9.37634 37227 ft 480 kts 133°
2026-04-22 09:36 48.44840 9.44862 37228 ft 478 kts 133°
2026-04-22 09:36 48.40225 9.52062 37251 ft 478 kts 133°
2026-04-22 09:37 48.35604 9.59253 37237 ft 478 kts 133°
2026-04-22 09:37 48.31175 9.66697 37236 ft 478 kts 127°
2026-04-22 09:38 48.27044 9.74452 37241 ft 479 kts 127°
2026-04-22 09:38 48.22893 9.82291 37232 ft 481 kts 127°
2026-04-22 09:39 48.18696 9.90112 37263 ft 483 kts 127°
2026-04-22 09:39 48.14451 9.97946 37249 ft 485 kts 127°
2026-04-22 09:40 48.10182 10.05789 37237 ft 487 kts 128°
2026-04-22 09:40 48.05891 10.13651 37238 ft 488 kts 128°
2026-04-22 09:41 48.01591 10.21509 37239 ft 489 kts 128°
2026-04-22 09:41 47.97282 10.29364 37232 ft 489 kts 128°
2026-04-22 09:42 47.93668 10.35933 37205 ft 488 kts 128°
2026-04-22 09:42 47.89355 10.43752 37219 ft 488 kts 128°
2026-04-22 09:43 47.85070 10.51496 37215 ft 487 kts 128°
2026-04-22 09:43 47.80727 10.59326 37194 ft 487 kts 128°
2026-04-22 09:44 47.76411 10.67083 37193 ft 487 kts 128°
2026-04-22 09:44 47.72092 10.74822 37196 ft 486 kts 128°
2026-04-22 09:45 47.67802 10.82490 37200 ft 486 kts 128°
2026-04-22 09:45 47.63451 10.90243 37194 ft 486 kts 128°
2026-04-22 09:46 47.59140 10.97903 37206 ft 488 kts 128°
2026-04-22 09:46 47.54779 11.05631 37195 ft 490 kts 128°
2026-04-22 09:47 47.50397 11.13374 37198 ft 490 kts 128°
2026-04-22 09:47 47.46011 11.21100 37189 ft 490 kts 129°
2026-04-22 09:48 47.41620 11.28813 37236 ft 491 kts 129°
2026-04-22 09:48 47.37217 11.36527 37245 ft 491 kts 129°
2026-04-22 09:49 47.32808 11.44229 37249 ft 493 kts 129°
2026-04-22 09:49 47.28371 11.51958 37238 ft 495 kts 129°
2026-04-22 09:50 47.23921 11.59687 37240 ft 495 kts 129°
2026-04-22 09:50 47.19458 11.67419 37236 ft 496 kts 129°
2026-04-22 09:51 47.14992 11.75136 37233 ft 495 kts 129°
2026-04-22 09:51 47.10537 11.82833 37202 ft 495 kts 127°
2026-04-22 09:52 47.07059 11.91449 37214 ft 489 kts 109°
2026-04-22 09:52 47.04986 12.00877 37215 ft 486 kts 104°
2026-04-22 09:53 47.03016 12.10344 37211 ft 485 kts 104°
2026-04-22 09:53 47.01005 12.19770 37199 ft 485 kts 104°
2026-04-22 09:54 46.98970 12.29118 37210 ft 485 kts 105°
2026-04-22 09:54 46.96904 12.38523 37226 ft 486 kts 105°
2026-04-22 09:55 46.94810 12.48015 37189 ft 487 kts 105°
2026-04-22 09:55 46.92739 12.57371 37170 ft 486 kts 105°
2026-04-22 09:56 46.90651 12.66759 37181 ft 485 kts 105°
2026-04-22 09:56 46.88560 12.76124 37200 ft 485 kts 105°
2026-04-22 09:57 46.86456 12.85509 37172 ft 486 kts 105°
2026-04-22 09:57 46.84343 12.94887 37188 ft 487 kts 105°
2026-04-22 09:58 46.82214 13.04300 37194 ft 489 kts 105°
2026-04-22 09:58 46.80066 13.13745 37208 ft 490 kts 105°
2026-04-22 09:59 46.77913 13.23178 37194 ft 490 kts 106°
2026-04-22 09:59 46.75750 13.32609 37177 ft 490 kts 106°
2026-04-22 10:00 46.73580 13.42034 37185 ft 491 kts 106°
2026-04-22 10:00 46.71396 13.51476 37215 ft 491 kts 106°
2026-04-22 10:01 46.69206 13.60904 37198 ft 491 kts 106°
2026-04-22 10:01 46.67009 13.70318 37198 ft 491 kts 106°
2026-04-22 10:02 46.64806 13.79720 37196 ft 491 kts 106°
2026-04-22 10:02 46.62598 13.89099 37222 ft 489 kts 107°
2026-04-22 10:03 46.60385 13.98461 37200 ft 489 kts 107°
2026-04-22 10:03 46.58171 14.07789 37212 ft 488 kts 107°
2026-04-22 10:04 46.55952 14.17102 37214 ft 487 kts 107°
2026-04-22 10:04 46.53726 14.26401 37222 ft 487 kts 107°
2026-04-22 10:05 46.51496 14.35682 37216 ft 487 kts 107°
2026-04-22 10:05 46.49256 14.44962 37207 ft 487 kts 107°
2026-04-22 10:06 46.47008 14.54243 37196 ft 488 kts 107°
2026-04-22 10:06 46.44749 14.63521 37228 ft 488 kts 108°
2026-04-22 10:07 46.42299 14.72698 37206 ft 488 kts 110°
2026-04-22 10:07 46.39740 14.81813 37210 ft 488 kts 110°
2026-04-22 10:08 46.37196 14.90931 37212 ft 489 kts 110°
2026-04-22 10:08 46.34682 15.00007 37231 ft 489 kts 110°
2026-04-22 10:09 46.32152 15.09137 37220 ft 489 kts 110°
2026-04-22 10:09 46.29608 15.18275 37203 ft 490 kts 110°
2026-04-22 10:10 46.27055 15.27409 37211 ft 490 kts 110°
2026-04-22 10:10 46.24493 15.36536 37227 ft 490 kts 110°
2026-04-22 10:11 46.21920 15.45671 37213 ft 491 kts 110°
2026-04-22 10:11 46.19338 15.54808 37206 ft 491 kts 110°
2026-04-22 10:12 46.16753 15.63927 37214 ft 491 kts 110°
2026-04-22 10:12 46.14248 15.73090 37210 ft 490 kts 109°
2026-04-22 10:13 46.11785 15.82252 37205 ft 490 kts 109°
2026-04-22 10:13 46.09310 15.91395 37205 ft 490 kts 109°
2026-04-22 10:14 46.06817 16.00528 37211 ft 490 kts 110°
2026-04-22 10:14 46.04316 16.09639 37213 ft 489 kts 110°
2026-04-22 10:15 46.01807 16.18748 37197 ft 490 kts 110°
2026-04-22 10:15 45.99290 16.27847 37203 ft 490 kts 110°
2026-04-22 10:16 45.96767 16.36938 37209 ft 490 kts 110°
2026-04-22 10:16 45.94233 16.46037 37222 ft 491 kts 110°
2026-04-22 10:17 45.91686 16.55146 37211 ft 492 kts 111°
2026-04-22 10:17 45.89129 16.64254 37212 ft 492 kts 111°
2026-04-22 10:18 45.86564 16.73359 37207 ft 492 kts 111°
2026-04-22 10:18 45.83988 16.82469 37214 ft 493 kts 111°
2026-04-22 10:19 45.81407 16.91565 37201 ft 493 kts 111°
2026-04-22 10:19 45.78815 17.00664 37201 ft 493 kts 111°
2026-04-22 10:20 45.76217 17.09756 37197 ft 493 kts 111°
2026-04-22 10:20 45.73581 17.18809 37201 ft 493 kts 112°
2026-04-22 10:21 45.70787 17.27760 37195 ft 493 kts 114°
2026-04-22 10:21 45.67963 17.36679 37199 ft 492 kts 113°
2026-04-22 10:22 45.65154 17.45600 37199 ft 492 kts 113°
2026-04-22 10:22 45.62354 17.54509 37197 ft 492 kts 114°
2026-04-22 10:23 45.59549 17.63411 37201 ft 491 kts 114°
2026-04-22 10:23 45.56758 17.72232 37190 ft 491 kts 114°
2026-04-22 10:24 45.53939 17.81108 37207 ft 491 kts 114°
2026-04-22 10:24 45.51113 17.89977 37200 ft 492 kts 114°
2026-04-22 10:25 45.48272 17.98865 37194 ft 493 kts 114°
2026-04-22 10:25 45.45422 18.07753 37197 ft 493 kts 114°
2026-04-22 10:26 45.42376 18.16511 37195 ft 494 kts 118°
2026-04-22 10:26 45.39071 18.25109 37189 ft 495 kts 119°
2026-04-22 10:27 45.35745 18.33684 37182 ft 495 kts 118°
2026-04-22 10:27 45.32442 18.42281 37179 ft 495 kts 118°
2026-04-22 10:28 45.29711 18.49424 37186 ft 495 kts 118°
2026-04-22 10:28 45.26421 18.58018 37177 ft 495 kts 118°
2026-04-22 10:29 45.23128 18.66594 37174 ft 495 kts 118°
2026-04-22 10:29 45.19829 18.75150 37168 ft 494 kts 118°
2026-04-22 10:30 45.16526 18.83691 37166 ft 494 kts 119°
2026-04-22 10:30 45.13218 18.92217 37163 ft 494 kts 119°
2026-04-22 10:31 45.09907 19.00724 37169 ft 493 kts 119°
2026-04-22 10:31 45.06588 19.09228 37164 ft 493 kts 119°
2026-04-22 10:32 45.03264 19.17717 37163 ft 493 kts 119°
2026-04-22 10:32 44.99933 19.26199 37161 ft 493 kts 119°
2026-04-22 10:33 44.96596 19.34669 37165 ft 494 kts 119°
2026-04-22 10:33 44.93249 19.43139 37167 ft 494 kts 119°
2026-04-22 10:34 44.89894 19.51605 37157 ft 494 kts 120°
2026-04-22 10:34 44.86531 19.60065 37154 ft 494 kts 120°
2026-04-22 10:35 44.83165 19.68507 37137 ft 494 kts 120°
2026-04-22 10:35 44.79792 19.76940 37155 ft 494 kts 120°
2026-04-22 10:36 44.76413 19.85364 37147 ft 494 kts 120°
2026-04-22 10:36 44.73026 19.93782 37139 ft 495 kts 120°
2026-04-22 10:37 44.67923 20.06416 37135 ft 495 kts 120°
2026-04-22 10:38 44.64514 20.14826 37133 ft 496 kts 120°
2026-04-22 10:38 44.61118 20.23179 37135 ft 496 kts 120°
2026-04-22 10:39 44.57667 20.31642 37134 ft 496 kts 120°
2026-04-22 10:39 44.54230 20.40046 37136 ft 497 kts 121°
2026-04-22 10:40 44.50785 20.48443 37127 ft 497 kts 121°
2026-04-22 10:40 44.47335 20.56829 37100 ft 497 kts 121°
2026-04-22 10:41 44.43905 20.65139 37113 ft 496 kts 121°
2026-04-22 10:41 44.40447 20.73496 37111 ft 496 kts 121°
2026-04-22 10:42 44.36983 20.81840 37100 ft 496 kts 121°
2026-04-22 10:42 44.33513 20.90176 37098 ft 496 kts 121°
2026-04-22 10:43 44.30039 20.98497 37099 ft 496 kts 121°
2026-04-22 10:43 44.26556 21.06813 37089 ft 496 kts 121°
2026-04-22 10:44 44.23067 21.15119 37088 ft 496 kts 121°
2026-04-22 10:44 44.19574 21.23413 37085 ft 496 kts 122°
2026-04-22 10:45 44.16077 21.31693 37077 ft 496 kts 122°
2026-04-22 10:45 44.12570 21.39970 37069 ft 496 kts 122°
2026-04-22 10:46 44.09061 21.48229 37065 ft 496 kts 122°
2026-04-22 10:46 44.05540 21.56493 37068 ft 497 kts 122°
2026-04-22 10:47 44.02009 21.64756 37059 ft 498 kts 122°
2026-04-22 10:47 43.98465 21.73025 37054 ft 499 kts 122°
2026-04-22 10:48 43.94907 21.81303 37043 ft 500 kts 122°
2026-04-22 10:48 43.91339 21.89582 37048 ft 500 kts 122°
2026-04-22 10:49 43.87758 21.97866 37037 ft 501 kts 123°
2026-04-22 10:49 43.84170 22.06144 37041 ft 502 kts 123°
2026-04-22 10:50 43.80594 22.14370 37036 ft 502 kts 123°
2026-04-22 10:50 43.76986 22.22646 37038 ft 502 kts 123°
2026-04-22 10:51 43.73374 22.30911 37024 ft 502 kts 123°
2026-04-22 10:51 43.69757 22.39165 37036 ft 502 kts 123°
2026-04-22 10:52 43.66087 22.47374 37037 ft 502 kts 124°
2026-04-22 10:52 43.62323 22.55480 37051 ft 502 kts 125°
2026-04-22 10:53 43.58549 22.63586 37043 ft 502 kts 124°
2026-04-22 10:53 43.54784 22.71697 37050 ft 502 kts 124°
2026-04-22 10:54 43.51023 22.79795 37045 ft 502 kts 125°
2026-04-22 10:54 43.47254 22.87886 37052 ft 502 kts 125°
2026-04-22 10:55 43.43477 22.95971 37065 ft 503 kts 125°
2026-04-22 10:55 43.39687 23.04056 37048 ft 503 kts 125°
2026-04-22 10:56 43.35890 23.12131 37048 ft 503 kts 125°
2026-04-22 10:56 43.32087 23.20203 37061 ft 503 kts 125°
2026-04-22 10:57 43.28276 23.28273 37050 ft 504 kts 125°
2026-04-22 10:57 43.24455 23.36341 37055 ft 504 kts 125°
2026-04-22 10:58 43.20626 23.44404 37055 ft 505 kts 125°
2026-04-22 10:58 43.16786 23.52468 37035 ft 506 kts 125°
2026-04-22 10:59 43.12937 23.60530 37036 ft 506 kts 126°
2026-04-22 10:59 43.09085 23.68575 37061 ft 505 kts 126°
2026-04-22 11:00 43.05232 23.76601 37051 ft 505 kts 126°
2026-04-22 11:00 43.01371 23.84622 37039 ft 505 kts 126°
2026-04-22 11:01 42.97505 23.92631 37056 ft 505 kts 126°
2026-04-22 11:01 42.93634 24.00629 37045 ft 505 kts 126°
2026-04-22 11:02 42.89756 24.08624 37051 ft 505 kts 126°
2026-04-22 11:02 42.85870 24.16613 37048 ft 505 kts 126°
2026-04-22 11:03 42.82287 24.24788 37056 ft 507 kts 121°
2026-04-22 11:03 42.78996 24.33297 37046 ft 508 kts 120°
2026-04-22 11:04 42.75688 24.41876 37042 ft 509 kts 120°
2026-04-22 11:04 42.72370 24.50301 37052 ft 508 kts 121°
2026-04-22 11:05 42.69004 24.58744 37056 ft 508 kts 121°
2026-04-22 11:05 42.65628 24.67170 37057 ft 508 kts 121°
2026-04-22 11:06 42.62249 24.75589 37026 ft 508 kts 121°
2026-04-22 11:06 42.58865 24.84002 37055 ft 508 kts 121°
2026-04-22 11:07 42.55473 24.92412 37039 ft 508 kts 121°
2026-04-22 11:07 42.52074 25.00813 37048 ft 508 kts 121°
2026-04-22 11:08 42.48668 25.09208 37038 ft 509 kts 121°
2026-04-22 11:08 42.45253 25.17600 37036 ft 508 kts 121°
2026-04-22 11:09 42.41836 25.25976 37029 ft 508 kts 122°
2026-04-22 11:09 42.38412 25.34342 37032 ft 508 kts 122°
2026-04-22 11:10 42.34981 25.42701 37035 ft 508 kts 122°
2026-04-22 11:10 42.31542 25.51056 37040 ft 508 kts 122°
2026-04-22 11:11 42.28103 25.59388 37039 ft 508 kts 122°
2026-04-22 11:11 42.24661 25.67703 37043 ft 507 kts 122°
2026-04-22 11:12 42.21236 25.75953 37050 ft 507 kts 122°
2026-04-22 11:12 42.17785 25.84243 37038 ft 507 kts 123°
2026-04-22 11:13 42.14327 25.92528 37052 ft 507 kts 123°
2026-04-22 11:13 42.10861 26.00805 37054 ft 508 kts 123°
2026-04-22 11:14 42.07381 26.09097 37040 ft 509 kts 123°
2026-04-22 11:14 42.03893 26.17383 37055 ft 509 kts 123°
2026-04-22 11:15 42.00391 26.25681 37074 ft 511 kts 123°
2026-04-22 11:15 41.96874 26.33994 37068 ft 513 kts 123°
2026-04-22 11:16 41.93919 26.40974 37052 ft 513 kts 123°
2026-04-22 11:16 41.90385 26.49312 37064 ft 514 kts 123°
2026-04-22 11:17 41.86292 26.57050 37060 ft 504 kts 139°
2026-04-22 11:17 41.80964 26.62912 37073 ft 492 kts 152°
2026-04-22 11:18 41.75360 26.68067 37060 ft 491 kts 152°
2026-04-22 11:18 41.69745 26.73290 37043 ft 492 kts 151°
2026-04-22 11:19 41.64158 26.78547 37060 ft 491 kts 151°
2026-04-22 11:19 41.58577 26.83801 37063 ft 490 kts 151°
2026-04-22 11:20 41.53002 26.89034 37056 ft 489 kts 152°
2026-04-22 11:20 41.47434 26.94246 37056 ft 488 kts 152°
2026-04-22 11:21 41.41872 26.99433 37053 ft 487 kts 152°
2026-04-22 11:21 41.36320 27.04595 37054 ft 487 kts 152°
2026-04-22 11:22 41.30768 27.09747 37061 ft 486 kts 152°
2026-04-22 11:22 41.25228 27.14881 37060 ft 485 kts 152°
2026-04-22 11:23 41.19692 27.19999 37045 ft 485 kts 152°
2026-04-22 11:23 41.14158 27.25100 37064 ft 484 kts 152°
2026-04-22 11:24 41.08619 27.30196 37059 ft 485 kts 152°
2026-04-22 11:24 41.03072 27.35292 37026 ft 485 kts 152°
2026-04-22 11:25 40.97532 27.40373 37045 ft 485 kts 152°
2026-04-22 11:25 40.91711 27.44595 37070 ft 471 kts 165°
2026-04-22 11:26 40.85602 27.47725 37051 ft 470 kts 166°
2026-04-22 11:26 40.79497 27.50848 37012 ft 471 kts 166°
2026-04-22 11:27 40.73402 27.54037 37046 ft 471 kts 165°
2026-04-22 11:27 40.67308 27.57244 37044 ft 472 kts 165°
2026-04-22 11:28 40.61186 27.60457 37041 ft 475 kts 165°
2026-04-22 11:28 40.55046 27.63672 37036 ft 475 kts 165°
2026-04-22 11:29 40.48905 27.66893 37052 ft 475 kts 165°
2026-04-22 11:29 40.42775 27.70131 37039 ft 474 kts 165°
2026-04-22 11:30 40.36711 27.73332 37044 ft 472 kts 165°
2026-04-22 11:30 40.30618 27.76536 37024 ft 471 kts 165°
2026-04-22 11:31 40.24539 27.79727 37037 ft 470 kts 165°
2026-04-22 11:31 40.18437 27.82923 37041 ft 469 kts 165°
2026-04-22 11:32 40.12369 27.86093 36999 ft 471 kts 165°
2026-04-22 11:32 40.06284 27.89267 37019 ft 471 kts 165°
2026-04-22 11:33 40.00195 27.92439 37024 ft 471 kts 165°
2026-04-22 11:33 39.94097 27.95609 37028 ft 472 kts 165°
2026-04-22 11:34 39.87991 27.98777 36992 ft 473 kts 165°
2026-04-22 11:34 39.81881 28.01896 37013 ft 471 kts 166°
2026-04-22 11:35 39.75765 28.04940 37020 ft 470 kts 166°
2026-04-22 11:35 39.69652 28.07979 37014 ft 471 kts 166°
2026-04-22 11:36 39.63536 28.11025 37012 ft 470 kts 165°
2026-04-22 11:36 39.57432 28.14064 36991 ft 470 kts 165°
2026-04-22 11:37 39.51321 28.17100 36978 ft 470 kts 165°
2026-04-22 11:37 39.45206 28.20132 36977 ft 470 kts 165°
2026-04-22 11:38 39.39094 28.23158 36960 ft 470 kts 165°
2026-04-22 11:38 39.29936 28.27681 36975 ft 470 kts 165°
2026-04-22 11:39 39.23826 28.30665 36958 ft 469 kts 165°
2026-04-22 11:39 39.17723 28.33627 36967 ft 469 kts 165°
2026-04-22 11:40 39.11612 28.36593 36946 ft 469 kts 165°
2026-04-22 11:40 39.05504 28.39554 36957 ft 469 kts 166°
2026-04-22 11:41 38.99367 28.42351 36949 ft 467 kts 168°
2026-04-22 11:41 38.93200 28.44986 36938 ft 466 kts 168°
2026-04-22 11:42 38.87044 28.47630 36942 ft 467 kts 168°
2026-04-22 11:42 38.80918 28.50287 36941 ft 468 kts 167°
2026-04-22 11:43 38.74742 28.52970 36945 ft 469 kts 167°
2026-04-22 11:43 38.68550 28.55653 36931 ft 470 kts 167°
2026-04-22 11:44 38.62348 28.58336 36939 ft 471 kts 167°
2026-04-22 11:44 38.56089 28.60634 36923 ft 462 kts 179°
2026-04-22 11:45 38.49743 28.61381 36638 ft 456 kts 182°
2026-04-22 11:45 38.46597 28.61703 36210 ft 452 kts 182°
2026-04-22 11:45 38.43468 28.62033 35679 ft 451 kts 182°
2026-04-22 11:46 38.40341 28.62374 35104 ft 452 kts 182°
2026-04-22 11:46 38.37205 28.62728 34514 ft 453 kts 182°
2026-04-22 11:46 38.34055 28.63091 33901 ft 455 kts 182°
2026-04-22 11:46 38.30893 28.63459 33209 ft 457 kts 181°
2026-04-22 11:47 38.27727 28.63831 32548 ft 457 kts 181°
2026-04-22 11:47 38.24555 28.64205 31913 ft 458 kts 181°
2026-04-22 11:47 38.21397 28.64578 31480 ft 453 kts 181°
2026-04-22 11:47 38.18267 28.64949 31018 ft 450 kts 181°
2026-04-22 11:48 38.15160 28.65314 30571 ft 447 kts 181°
2026-04-22 11:48 38.12079 28.65675 30132 ft 443 kts 181°
2026-04-22 11:48 38.09018 28.66033 29605 ft 440 kts 181°
2026-04-22 11:48 38.05990 28.66386 29164 ft 435 kts 181°
2026-04-22 11:49 38.02991 28.66736 28703 ft 430 kts 181°
2026-04-22 11:49 38.00026 28.67081 28262 ft 426 kts 181°
2026-04-22 11:49 37.97088 28.67423 27812 ft 421 kts 180°
2026-04-22 11:49 37.94186 28.67760 27381 ft 417 kts 181°
2026-04-22 11:50 37.91309 28.68093 26951 ft 414 kts 181°
2026-04-22 11:50 37.88452 28.68423 26506 ft 411 kts 181°
2026-04-22 11:50 37.85649 28.68747 26065 ft 409 kts 181°
2026-04-22 11:50 37.82824 28.69074 25648 ft 406 kts 181°
2026-04-22 11:51 37.80017 28.69398 25227 ft 404 kts 181°
2026-04-22 11:51 37.77227 28.69720 24802 ft 402 kts 181°
2026-04-22 11:51 37.74446 28.70042 24389 ft 400 kts 181°
2026-04-22 11:51 37.71681 28.70359 23969 ft 398 kts 181°
2026-04-22 11:52 37.68924 28.70599 23559 ft 395 kts 183°
2026-04-22 11:52 37.66189 28.70783 23051 ft 393 kts 183°
2026-04-22 11:52 37.63462 28.70956 22594 ft 391 kts 183°
2026-04-22 11:52 37.60749 28.71135 22162 ft 389 kts 182°
2026-04-22 11:53 37.58058 28.71340 21718 ft 388 kts 179°
2026-04-22 11:53 37.55385 28.72062 21063 ft 397 kts 166°
2026-04-22 11:53 37.52835 28.73402 20343 ft 399 kts 155°
2026-04-22 11:53 37.50423 28.75131 19613 ft 398 kts 154°
2026-04-22 11:54 37.48036 28.76866 18944 ft 395 kts 154°
2026-04-22 11:54 37.45667 28.78582 18338 ft 390 kts 154°
2026-04-22 11:54 37.43325 28.80268 17672 ft 386 kts 154°
2026-04-22 11:54 37.41010 28.81925 17019 ft 380 kts 154°
2026-04-22 11:55 37.38721 28.83556 16415 ft 375 kts 154°
2026-04-22 11:55 37.36465 28.85160 15800 ft 371 kts 154°
2026-04-22 11:55 37.34227 28.86747 15204 ft 367 kts 154°
2026-04-22 11:55 37.32013 28.88316 14622 ft 363 kts 154°
2026-04-22 11:56 37.29865 28.89840 14488 ft 345 kts 154°
2026-04-22 11:56 37.27827 28.91286 14367 ft 328 kts 154°
2026-04-22 11:56 37.25863 28.92676 14025 ft 321 kts 154°
2026-04-22 11:56 37.23917 28.94050 13503 ft 320 kts 154°
2026-04-22 11:57 37.22008 28.95395 13022 ft 317 kts 154°
2026-04-22 11:57 37.20069 28.96763 12537 ft 315 kts 154°
2026-04-22 11:57 37.18222 28.98067 12386 ft 301 kts 154°
2026-04-22 11:57 37.16441 28.99325 12276 ft 287 kts 154°
2026-04-22 11:58 37.14743 29.00524 12123 ft 275 kts 154°
2026-04-22 11:58 37.13087 29.01689 11771 ft 272 kts 155°
2026-04-22 11:58 37.11436 29.02850 11376 ft 271 kts 154°
2026-04-22 11:58 37.09777 29.04016 11003 ft 269 kts 154°
2026-04-22 11:59 37.08175 29.05141 10648 ft 267 kts 155°
2026-04-22 11:59 37.06451 29.05831 10269 ft 258 kts 184°
2026-04-22 11:59 37.04725 29.05408 9966 ft 246 kts 206°
2026-04-22 11:59 37.03221 29.04422 9536 ft 244 kts 213°
2026-04-22 12:00 37.01773 29.03327 9156 ft 241 kts 214°
2026-04-22 12:00 37.00827 29.02611 8935 ft 239 kts 214°
2026-04-22 12:00 36.99409 29.01551 8664 ft 233 kts 214°
2026-04-22 12:00 36.97595 29.00202 8281 ft 227 kts 212°
2026-04-22 12:01 36.96254 28.99214 7997 ft 219 kts 213°
2026-04-22 12:01 36.94935 28.98243 7476 ft 220 kts 212°
2026-04-22 12:01 36.93636 28.97239 6994 ft 222 kts 218°
2026-04-22 12:01 36.92446 28.95992 6545 ft 223 kts 221°
2026-04-22 12:02 36.91283 28.94718 6113 ft 221 kts 221°
2026-04-22 12:02 36.90505 28.93856 5763 ft 222 kts 221°
2026-04-22 12:02 36.89226 28.92813 5287 ft 221 kts 197°
2026-04-22 12:02 36.87758 28.92853 5191 ft 207 kts 161°
2026-04-22 12:03 36.86643 28.93914 5029 ft 202 kts 125°
2026-04-22 12:03 36.86295 28.95556 5029 ft 201 kts 88°
2026-04-22 12:03 36.86823 28.97182 4992 ft 207 kts 48°
2026-04-22 12:03 36.88035 28.98107 4986 ft 208 kts 10°
2026-04-22 12:04 36.89449 28.97973 4913 ft 206 kts 333°
2026-04-22 12:04 36.90507 28.96873 4703 ft 199 kts 297°
2026-04-22 12:04 36.90785 28.95306 4544 ft 177 kts 250°
2026-04-22 12:04 36.90151 28.94109 4603 ft 164 kts 226°
2026-04-22 12:05 36.89323 28.92977 4313 ft 185 kts 225°
2026-04-22 12:05 36.88407 28.91866 4048 ft 181 kts 220°
2026-04-22 12:05 36.87495 28.90825 3822 ft 175 kts 220°
2026-04-22 12:05 36.86593 28.89824 3551 ft 170 kts 220°
2026-04-22 12:06 36.85730 28.88835 3464 ft 168 kts 221°
2026-04-22 12:06 36.84748 28.88006 3207 ft 168 kts 206°
2026-04-22 12:06 36.83747 28.87304 2927 ft 160 kts 208°
2026-04-22 12:06 36.82802 28.86620 2690 ft 154 kts 208°
2026-04-22 12:07 36.81884 28.85941 2489 ft 154 kts 212°
2026-04-22 12:07 36.81035 28.85123 2273 ft 156 kts 220°
2026-04-22 12:07 36.80232 28.84182 1995 ft 159 kts 223°
2026-04-22 12:07 36.79451 28.83257 1728 ft 150 kts 218°
2026-04-22 12:08 36.78632 28.82396 1435 ft 155 kts 217°
2026-04-22 12:08 36.77784 28.81625 1156 ft 150 kts 208°
2026-04-22 12:08 36.76826 28.81136 864 ft 146 kts 194°
2026-04-22 12:08 36.75864 28.80809 663 ft 143 kts 195°
2026-04-22 12:09 36.74902 28.80470 488 ft 144 kts 194°
2026-04-22 12:09 36.73927 28.80143 327 ft 146 kts 195°
2026-04-22 12:09 36.72938 28.79808 124 ft 147 kts 195°
2026-04-22 12:09 36.71977 28.79477 12 ft 135 kts 195°
2026-04-22 12:10 36.71210 28.79217 12 ft 92 kts 195°
2026-04-22 12:10 36.70819 28.79085 12 ft 32 kts 196°
2026-04-22 12:10 36.70672 28.78984 14 ft 23 kts 219°
2026-04-22 12:10 36.70583 28.78884 12 ft 13 kts 224°
2026-04-22 12:11 36.70612 28.78807 12 ft 13 kts 355°
2026-04-22 12:11 36.70699 28.78828 12 ft 13 kts 15°
2026-04-22 12:11 36.70781 28.78856 12 ft 12 kts 15°
2026-04-22 12:11 36.70863 28.78885 12 ft 12 kts 15°
2026-04-22 12:12 36.70949 28.78913 12 ft 15 kts 15°
2026-04-22 12:12 36.71075 28.78956 12 ft 22 kts 15°
2026-04-22 12:12 36.71231 28.79009 12 ft 23 kts 14°
2026-04-22 12:12 36.71384 28.79062 12 ft 22 kts 15°
2026-04-22 12:13 36.71532 28.79112 11 ft 22 kts 15°
2026-04-22 12:13 36.71676 28.79161 11 ft 21 kts 15°
2026-04-22 12:13 36.71800 28.79203 11 ft 10 kts 15°
2026-04-22 12:13 36.71861 28.79196 13 ft 9 kts 323°
2026-04-22 12:14 36.71882 28.79126 11 ft 9 kts 282°
2026-04-22 12:14 36.71900 28.79048 13 ft 10 kts 301°
2026-04-22 12:14 36.71974 28.79042 11 ft 13 kts 15°
2026-04-22 12:14 36.72069 28.79074 11 ft 15 kts 15°
2026-04-22 12:15 36.72148 28.79100 11 ft 8 kts
2026-04-22 12:15 36.72181 28.79053 11 ft 5 kts 285°
2026-04-22 12:15 36.72184 28.79035 11 ft 2 kts 284°
2026-04-22 12:15 36.72185 28.79033 11 ft 0 kts 284°